Regional Weather Roundup
Issued by NWS

Home | Current Version | Previous Version | Text Only | Print | Product List | Glossary On
Versions: 1 2 3 4 5 6 7 8 9 10 11 12 13 14 15 16 17 18 19 20 21 22 23 24 25 26 27 28 29 30 31 32 33 34 35 36 37 38 39 40 41 42 43 44 45 46 47 48 49 50
000
ASUS43 KDTX 190310
RWRMI
MICHIGAN HOURLY REGIONAL WEATHER ROUNDUP
NATIONAL WEATHER SERVICE DETROIT/PONTIAC MI
1000 PM EST WED JAN 18 2017

NOTE: "FAIR" INDICATES FEW OR NO CLOUDS BELOW 12,000 FEET WITH NO
SIGNIFICANT WEATHER AND/OR OBSTRUCTION TO VISIBILITY.

MIZ047>049-052>055-059>063-066>070-074>076-081>083-190400-
SOUTHEAST LOWER MICHIGAN

CITY           SKY/WX    TMP DP  RH WIND       PRES   REMARKS
ADRIAN         CLOUDY    33  33 100 W10       30.10R WCI  25
ALMA           CLOUDY    34  32  92 SW13G18   30.02F WCI  25
ANN ARBOR      CLOUDY    34  33  96 SW10      30.06S WCI  26
BAD AXE        CLOUDY    34  34 100 SW18      29.98S WCI  23
CARO           CLOUDY    35  33  95 SW13      29.99F WCI  26
DETROIT        CLOUDY    36  33  89 SW8       30.07F WCI  30
FLINT          CLOUDY    35  33  92 SW10      30.04R WCI  27
GROSSE ILE     CLOUDY    35  33  92 W9        30.06S WCI  28
HILLSDALE      CLOUDY    32  32 100 W14G22    30.07R FOG     WCI  22
HOWELL         CLOUDY    34  32  93 SW6       30.04R FOG     WCI  29

CITY           SKY/WX    TMP DP  RH WIND       PRES   REMARKS
JACKSON        CLOUDY    33  31  92 SW16      30.06R WCI  23
LAMBERTVILLE   CLOUDY    36  33  89 W9        30.09S WCI  29
LANSING        CLOUDY    34  31  88 SW14G21   30.05R WCI  25
LAPEER         CLOUDY    35  34  94 SW10      30.02S WCI  28
MASON          CLOUDY    33  32  96 SW9       30.05S WCI  26
MONROE         CLOUDY    35  34  97 W10       30.07F WCI  27
MT. CLEMENS    CLOUDY    37  35  92 SW12      30.03S WCI  29
PONTIAC        CLOUDY    34  31  88 W7        30.03R WCI  28
PORT HOPE        N/A     36  33  89 SW12G26   29.93F WCI  28
PORT HURON     CLOUDY    37  34  87 SW6       30.03S WCI  33
TRI CITIES     CLOUDY    35  33  92 SW17      30.02R FOG     WCI  25
MIDLAND        CLOUDY    35  32  88 SW13G18   30.01R WCI  27
TROY           CLOUDY    36  32  87 SW3       30.07R
SAGINAW HB     CLOUDY    36  32  87 SW14G20   30.01S FOG     WCI  27
$$
MIZ043>046-050>051-056>058-064>065-071>073-077>080-190400-
SOUTHWEST LOWER MICHIGAN

CITY           SKY/WX    TMP DP  RH WIND       PRES   REMARKS
BATTLE CREEK   CLOUDY    33  32  96 SW10      30.07S WCI  25
BENTON HARBOR  CLOUDY    36  32  85 SW7       30.07F WCI  30
BIG RAPIDS     CLOUDY    33  32  94 SW12G17   30.00R WCI  25
COLDWATER      CLOUDY    33  33 100 SW9       30.09R FOG     WCI  25
FREMONT        CLOUDY    35  33  94 SW9       30.01F WCI  27
HOLLAND        CLOUDY    36  32  85 SW14      30.05S WCI  27
GRAND RAPIDS   CLOUDY    34  31  88 SW9       30.04F WCI  27
IONIA          CLOUDY    33  32  98 W13       30.03F WCI  23
KALAMAZOO      CLOUDY    34  30  85 SW14      30.08S FOG     WCI  25
LUDINGTON      CLOUDY    35  33  94 SW13G18   29.99S FOG     WCI  26
MARSHALL       CLOUDY    33  32  98 SW9       30.07R WCI  25
MOUNT PLEASANT CLOUDY    34  32  92 SW10G17   30.00R WCI  26
MUSKEGON       CLOUDY    37  34  89 S9        30.03F WCI  30
SOUTH HAVEN    CLOUDY    35  33  90 SW14      30.07S WCI  26
$$
MIZ016>042-190400-
NORTHERN LOWER MICHIGAN

CITY           SKY/WX    TMP DP  RH WIND       PRES   REMARKS
ALPENA         CLOUDY    35  31  85 SW3       29.93R
BEAVER ISLAND  PTCLDY    37  35  95 SW12      29.90S WCI  29
BELLAIRE       CLOUDY    35  32  90 SW8       29.95S WCI  28
CADILLAC       CLOUDY    32  31  95 SW17      29.95R WCI  21
CHARLEVOIX     CLOUDY    35  33  93 SW8       29.95R WCI  28
FRANKFORT      CLOUDY    37  35  93 S12G18    29.96S WCI  29
GAYLORD        CLOUDY    34  29  82 SW12      29.91R WCI  25
GRAYLING       CLOUDY    34  32  93 SW8       29.94S WCI  27
HARBOR SPRINGS CLOUDY    34  32  92 SW8       29.91F WCI  27
HOUGHTON LAKE  CLOUDY    33  30  88 SW10      29.96R WCI  25
MANISTEE       CLOUDY    35  33  92 SW7       29.98R WCI  29
OSCODA         CLOUDY    36  33  90 SW9       29.94R WCI  29
PELLSTON       CLOUDY    36  31  82 SW7       29.92S WCI  30
ROGERS CITY    CLOUDY    35  32  88 W5        29.93S WCI  31
TRAVERSE CITY  CLOUDY    36  31  82 SW8       29.95R WCI  30
$$
MIZ007>008-015-190400-
EASTERN UPPER MICHIGAN

CITY           SKY/WX    TMP DP  RH WIND       PRES   REMARKS
KINROSS        CLOUDY    35  32  88 SW8       29.89S WCI  29
MACKINAC ISLAN CLOUDY    33  33 100 SW9G18    29.90S FOG     WCI  25
NEWBERRY       CLOUDY    32  32  99 S7        29.87R WCI  26
S. S. MARIE    CLOUDY    35  32  88 W5        29.89R WCI  31
MUNISING         N/A     32  30  92 S5        29.85S WCI  27
$$
MIZ004>006-011>014-085-190400-
CENTRAL UPPER MICHIGAN

CITY           SKY/WX    TMP DP  RH WIND       PRES   REMARKS
MANISTIQUE     CLOUDY    32  31  98 CALM      29.87R
ESCANABA       CLOUDY    32  31  96 SW9       29.88S WCI  24
SAWYER-GWINN   CLEAR     27  25  93 CALM      29.84R
$$
MIZ001>003-009>011-084-190400-
WESTERN UPPER MICHIGAN

CITY           SKY/WX    TMP DP  RH WIND       PRES   REMARKS
IRON MOUNTAIN  CLOUDY    32  26  78 CALM      29.84R
HOUGHTON       CLOUDY    31  26  82 CALM      29.81S
COPPER HARBOR    N/A     30  27  88 W6        29.83R WCI  24
IRONWOOD       CLOUDY    35  28  75 SW6       29.82S WCI  30
$$

ABBREVIATIONS USED IN REMARKS
   TC - TEMPERATURE IN CELSIUS
  WCI - WIND CHILL INDEX
   HX - HEAT INDEX
  VSB - VISIBILITY





USA.gov is the U.S. government's official web portal to all federal, state and local government web resources and services.